Location: Duac?
(36.9744°N, 30.6500°E)
Time: 12:03:59
(UTC+00:00)

Cosmos 2263 Rocket - Pass Details

Date: 05 August 2024
Orbit: 822 x 849 km, 71.0° (Epoch: 11 September)

Event Time Altitude Azimuth Distance (km) Brightness Sun altitude
Rises 20:48:54 0° 353° (N) 3,394 6.3 -33.6°
Reaches altitude 10° 20:52:07 10° 11° (N) 2,461 5.2 -33.8°
Enters shadow 20:55:35 19° 49° (NE) 1,930 4.2 -34.0°
